owner,sensor,date,latitude,longitude,vertical_datum,direction_of_sea_water_velocity,sea_water_speed,upward_sea_water_velocity,qcFlag 
TABS,ioos:station:TABS:E:1,1996-01-01T00:00:00Z,27.3383,-97.1000,2.0,197.5951123,22.66015225,-99999.0,'11111222,11111222,99999999' 
TABS,ioos:station:TABS:E:1,1996-01-01T00:30:00Z,27.3383,-97.1000,2.0,200.2865652,21.91970803,-99999.0,'11111222,11111222,99999999' 
TABS,ioos:station:TABS:E:1,1996-01-01T01:00:00Z,27.3383,-97.1000,2.0,201.3090503,19.67514676,-99999.0,'11111222,11111222,99999999' 
TABS,ioos:station:TABS:E:1,1996-01-01T01:30:00Z,27.3383,-97.1000,2.0,204.9791449,19.39413571,-99999.0,'11111222,11111222,99999999' 
TABS,ioos:station:TABS:E:1,1996-01-01T02:00:00Z,27.3383,-97.1000,2.0,202.3037781,18.83951698,-99999.0,'11111222,11111222,99999999' 
TABS,ioos:station:TABS:E:1,1996-01-01T02:30:00Z,27.3383,-97.1000,2.0,202.1319118,18.9783798,-99999.0,'11111222,11111222,99999999' 
TABS,ioos:station:TABS:E:1,1996-01-01T03:00:00Z,27.3383,-97.1000,2.0,201.3598165,17.59886928,-99999.0,'11111222,11111222,99999999' 
TABS,ioos:station:TABS:E:1,1996-01-01T03:30:00Z,27.3383,-97.1000,2.0,194.8655047,17.42315987,-99999.0,'11111222,11111222,99999999' 
TABS,ioos:station:TABS:E:1,1996-01-01T04:00:00Z,27.3383,-97.1000,2.0,195.3849419,18.54456255,-99999.0,'11111222,11111222,99999999' 
TABS,ioos:station:TABS:E:1,1996-01-01T04:30:00Z,27.3383,-97.1000,2.0,189.6410551,14.21071779,-99999.0,'11111222,11111222,99999999' 
TABS,ioos:station:TABS:E:1,1996-01-01T05:00:00Z,27.3383,-97.1000,2.0,186.7824918,15.15607469,-99999.0,'11111222,11111222,99999999' 
TABS,ioos:station:TABS:E:1,1996-01-01T05:30:00Z,27.3383,-97.1000,2.0,192.9974618,13.91655489,-99999.0,'11111222,11111222,99999999' 
TABS,ioos:station:TABS:E:1,1996-01-01T06:00:00Z,27.3383,-97.1000,2.0,183.0338221,14.16986238,-99999.0,'11111222,11111222,99999999' 
TABS,ioos:station:TABS:E:1,1996-01-01T06:30:00Z,27.3383,-97.1000,2.0,182.5333425,13.57326785,-99999.0,'11111222,11111222,99999999' 
TABS,ioos:station:TABS:E:1,1996-01-01T07:00:00Z,27.3383,-97.1000,2.0,181.6168657,15.94635068,-99999.0,'11111222,11111222,99999999' 
TABS,ioos:station:TABS:E:1,1996-01-01T07:30:00Z,27.3383,-97.1000,2.0,176.0856615,15.2355374,-99999.0,'11111222,11111222,99999999' 
TABS,ioos:station:TABS:E:1,1996-01-01T08:00:00Z,27.3383,-97.1000,2.0,173.8417132,15.28821769,-99999.0,'11111222,11111222,99999999' 
TABS,ioos:station:TABS:E:1,1996-01-01T08:30:00Z,27.3383,-97.1000,2.0,160.8271086,14.98095124,-99999.0,'11111222,11111222,99999999' 
TABS,ioos:station:TABS:E:1,1996-01-01T09:00:00Z,27.3383,-97.1000,2.0,157.0605078,16.83103087,-99999.0,'11111222,11111222,99999999' 
TABS,ioos:station:TABS:E:1,1996-01-01T09:30:00Z,27.3383,-97.1000,2.0,151.9664261,15.53235655,-99999.0,'11111222,11111222,99999999' 
TABS,ioos:station:TABS:E:1,1996-01-01T10:00:00Z,27.3383,-97.1000,2.0,153.6327121,18.12567516,-99999.0,'11111222,11111222,99999999' 
TABS,ioos:station:TABS:E:1,1996-01-01T10:30:00Z,27.3383,-97.1000,2.0,158.2782898,17.31982102,-99999.0,'11111222,11111222,99999999' 
TABS,ioos:station:TABS:E:1,1996-01-01T11:00:00Z,27.3383,-97.1000,2.0,155.3250598,20.33692455,-99999.0,'11111222,11111222,99999999' 
TABS,ioos:station:TABS:E:1,1996-01-01T11:30:00Z,27.3383,-97.1000,2.0,156.2197228,23.28708226,-99999.0,'11111222,11111222,99999999' 
TABS,ioos:station:TABS:E:1,1996-01-01T12:00:00Z,27.3383,-97.1000,2.0,155.698874,23.54628845,-99999.0,'11111222,11111222,99999999' 
TABS,ioos:station:TABS:E:1,1996-01-01T12:30:00Z,27.3383,-97.1000,2.0,156.5457598,22.08464851,-99999.0,'11111222,11111222,99999999' 
TABS,ioos:station:TABS:E:1,1996-01-01T13:00:00Z,27.3383,-97.1000,2.0,156.1486353,22.47980649,-99999.0,'11111222,11111222,99999999' 
TABS,ioos:station:TABS:E:1,1996-01-01T13:30:00Z,27.3383,-97.1000,2.0,155.9860493,23.81089247,-99999.0,'11111222,11111222,99999999' 
TABS,ioos:station:TABS:E:1,1996-01-01T14:00:00Z,27.3383,-97.1000,2.0,157.2943818,24.7154122,-99999.0,'11111222,11111222,99999999' 
TABS,ioos:station:TABS:E:1,1996-01-01T14:30:00Z,27.3383,-97.1000,2.0,159.1728503,25.9881069,-99999.0,'11111222,11111222,99999999' 
TABS,ioos:station:TABS:E:1,1996-01-01T15:00:00Z,27.3383,-97.1000,2.0,161.557488,24.49816524,-99999.0,'11111222,11111222,99999999' 
TABS,ioos:station:TABS:E:1,1996-01-01T15:30:00Z,27.3383,-97.1000,2.0,162.7942798,24.17169005,-99999.0,'11111222,11111222,99999999' 
TABS,ioos:station:TABS:E:1,1996-01-01T16:00:00Z,27.3383,-97.1000,2.0,155.9621627,27.0782902,-99999.0,'11111222,11111222,99999999' 
TABS,ioos:station:TABS:E:1,1996-01-01T16:30:00Z,27.3383,-97.1000,2.0,161.0459585,30.72594994,-99999.0,'11111222,11111222,99999999' 
TABS,ioos:station:TABS:E:1,1996-01-01T17:00:00Z,27.3383,-97.1000,2.0,158.0493323,30.68440157,-99999.0,'11111222,11111222,99999999' 
TABS,ioos:station:TABS:E:1,1996-01-01T17:30:00Z,27.3383,-97.1000,2.0,164.5204138,32.93465804,-99999.0,'11111222,11111222,99999999' 
TABS,ioos:station:TABS:E:1,1996-01-01T18:00:00Z,27.3383,-97.1000,2.0,161.6499282,29.82663575,-99999.0,'11111222,11111222,99999999' 
TABS,ioos:station:TABS:E:1,1996-01-01T18:30:00Z,27.3383,-97.1000,2.0,157.4391012,37.27232754,-99999.0,'11111222,11111222,99999999' 
TABS,ioos:station:TABS:E:1,1996-01-01T19:00:00Z,27.3383,-97.1000,2.0,154.9813033,41.92365681,-99999.0,'11111222,11111222,99999999' 
TABS,ioos:station:TABS:E:1,1996-01-01T19:30:00Z,27.3383,-97.1000,2.0,157.7696042,44.90796143,-99999.0,'11111222,11111222,99999999' 
TABS,ioos:station:TABS:E:1,1996-01-01T20:00:00Z,27.3383,-97.1000,2.0,160.5702161,48.82027448,-99999.0,'11111222,11111222,99999999' 
TABS,ioos:station:TABS:E:1,1996-01-01T20:30:00Z,27.3383,-97.1000,2.0,163.4705122,49.7353486,-99999.0,'11111222,11111222,99999999' 
TABS,ioos:station:TABS:E:1,1996-01-01T21:00:00Z,27.3383,-97.1000,2.0,164.9297046,52.15364992,-99999.0,'11111222,11111222,99999999' 
TABS,ioos:station:TABS:E:1,1996-01-01T21:30:00Z,27.3383,-97.1000,2.0,166.2388182,52.00266339,-99999.0,'11111222,11111222,99999999' 
TABS,ioos:station:TABS:E:1,1996-01-01T22:00:00Z,27.3383,-97.1000,2.0,169.1355403,52.94903587,-99999.0,'11111222,11111222,99999999' 
TABS,ioos:station:TABS:E:1,1996-01-01T22:30:00Z,27.3383,-97.1000,2.0,171.1747796,52.47118257,-99999.0,'11111222,11111222,99999999' 
TABS,ioos:station:TABS:E:1,1996-01-01T23:00:00Z,27.3383,-97.1000,2.0,173.0805075,46.9821796,-99999.0,'11111222,11111222,99999999' 
TABS,ioos:station:TABS:E:1,1996-01-01T23:30:00Z,27.3383,-97.1000,2.0,171.25848,45.073551,-99999.0,'11111222,11111222,99999999' 
TABS,ioos:station:TABS:E:1,1996-01-02T00:00:00Z,27.3383,-97.1000,2.0,170.0929871,40.68668578,-99999.0,'11111222,11111222,99999999' 
TABS,ioos:station:TABS:E:1,1996-01-02T00:30:00Z,27.3383,-97.1000,2.0,173.9243637,36.56537296,-99999.0,'11111222,11111222,99999999' 
TABS,ioos:station:TABS:E:1,1996-01-02T01:00:00Z,27.3383,-97.1000,2.0,173.5945465,32.09031785,-99999.0,'11111222,11111222,99999999' 
TABS,ioos:station:TABS:E:1,1996-01-02T01:30:00Z,27.3383,-97.1000,2.0,174.330115,36.23727363,-99999.0,'11111222,11111222,99999999' 
TABS,ioos:station:TABS:E:1,1996-01-02T02:00:00Z,27.3383,-97.1000,2.0,177.0958494,32.37156932,-99999.0,'11111222,11111222,99999999' 
TABS,ioos:station:TABS:E:1,1996-01-02T02:30:00Z,27.3383,-97.1000,2.0,181.0249526,33.5353679,-99999.0,'11111222,11111222,99999999' 
TABS,ioos:station:TABS:E:1,1996-01-02T03:00:00Z,27.3383,-97.1000,2.0,182.5207081,37.28608454,-99999.0,'11111222,11111222,99999999' 
TABS,ioos:station:TABS:E:1,1996-01-02T03:30:00Z,27.3383,-97.1000,2.0,192.6862433,36.65487826,-99999.0,'11111222,11111222,99999999' 
TABS,ioos:station:TABS:E:1,1996-01-02T04:00:00Z,27.3383,-97.1000,2.0,191.8953713,33.95928297,-99999.0,'11111222,11111222,99999999' 
TABS,ioos:station:TABS:E:1,1996-01-02T04:30:00Z,27.3383,-97.1000,2.0,179.7735642,37.99029613,-99999.0,'11111222,11111222,99999999' 
TABS,ioos:station:TABS:E:1,1996-01-02T05:00:00Z,27.3383,-97.1000,2.0,187.2945895,29.29713297,-99999.0,'11111222,11111222,99999999' 
TABS,ioos:station:TABS:E:1,1996-01-02T05:30:00Z,27.3383,-97.1000,2.0,179.7197544,30.69036657,-99999.0,'11111222,11111222,99999999' 
TABS,ioos:station:TABS:E:1,1996-01-02T06:00:00Z,27.3383,-97.1000,2.0,180.5013435,34.27131308,-99999.0,'11111222,11111222,99999999' 
TABS,ioos:station:TABS:E:1,1996-01-02T06:30:00Z,27.3383,-97.1000,2.0,181.8253276,32.6465695,-99999.0,'11111222,11111222,99999999' 
TABS,ioos:station:TABS:E:1,1996-01-02T07:00:00Z,27.3383,-97.1000,2.0,183.1111886,32.97861428,-99999.0,'11111222,11111222,99999999' 
TABS,ioos:station:TABS:E:1,1996-01-02T07:30:00Z,27.3383,-97.1000,2.0,178.5186226,34.43150447,-99999.0,'11111222,11111222,99999999' 
TABS,ioos:station:TABS:E:1,1996-01-02T08:00:00Z,27.3383,-97.1000,2.0,170.345714,37.32864316,-99999.0,'11111222,11111222,99999999' 
TABS,ioos:station:TABS:E:1,1996-01-02T08:30:00Z,27.3383,-97.1000,2.0,176.6404096,38.05539384,-99999.0,'11111222,11111222,99999999' 
TABS,ioos:station:TABS:E:1,1996-01-02T09:00:00Z,27.3383,-97.1000,2.0,174.2828644,35.93875346,-99999.0,'11111222,11111222,99999999' 
TABS,ioos:station:TABS:E:1,1996-01-02T09:30:00Z,27.3383,-97.1000,2.0,180.2095603,40.97027459,-99999.0,'11111222,11111222,99999999' 
TABS,ioos:station:TABS:E:1,1996-01-02T10:00:00Z,27.3383,-97.1000,2.0,185.2592893,39.05442997,-99999.0,'11111222,11111222,99999999' 
TABS,ioos:station:TABS:E:1,1996-01-02T10:30:00Z,27.3383,-97.1000,2.0,186.1881655,30.42730517,-99999.0,'11111222,11111222,99999999' 
TABS,ioos:station:TABS:E:1,1996-01-02T11:00:00Z,27.3383,-97.1000,2.0,182.6555487,38.63149233,-99999.0,'11111222,11111222,99999999' 
TABS,ioos:station:TABS:E:1,1996-01-02T11:30:00Z,27.3383,-97.1000,2.0,188.9607232,30.62377181,-99999.0,'11111222,11111222,99999999' 
TABS,ioos:station:TABS:E:1,1996-01-02T12:00:00Z,27.3383,-97.1000,2.0,189.2881232,24.90656138,-99999.0,'11111222,11111222,99999999' 
TABS,ioos:station:TABS:E:1,1996-01-02T12:30:00Z,27.3383,-97.1000,2.0,180.2351853,36.51030813,-99999.0,'11111222,11111222,99999999' 
TABS,ioos:station:TABS:E:1,1996-01-02T13:00:00Z,27.3383,-97.1000,2.0,183.4825752,41.64691825,-99999.0,'11111222,11111222,99999999' 
TABS,ioos:station:TABS:E:1,1996-01-02T13:30:00Z,27.3383,-97.1000,2.0,184.0958572,31.21974535,-99999.0,'11111222,11111222,99999999' 
TABS,ioos:station:TABS:E:1,1996-01-02T14:00:00Z,27.3383,-97.1000,2.0,191.4697864,32.98882387,-99999.0,'11111222,11111222,99999999' 
TABS,ioos:station:TABS:E:1,1996-01-02T14:30:00Z,27.3383,-97.1000,2.0,186.7161717,30.61007024,-99999.0,'11111222,11111222,99999999' 
TABS,ioos:station:TABS:E:1,1996-01-02T15:00:00Z,27.3383,-97.1000,2.0,194.2820175,25.98308103,-99999.0,'11111222,11111222,99999999' 
TABS,ioos:station:TABS:E:1,1996-01-02T15:30:00Z,27.3383,-97.1000,2.0,197.3156834,21.53605581,-99999.0,'11111222,11111222,99999999' 
TABS,ioos:station:TABS:E:1,1996-01-02T16:00:00Z,27.3383,-97.1000,2.0,206.0085277,20.72932705,-99999.0,'11111222,11111222,99999999' 
TABS,ioos:station:TABS:E:1,1996-01-02T16:30:00Z,27.3383,-97.1000,2.0,210.764594,16.30446871,-99999.0,'11111222,11111222,99999999' 
TABS,ioos:station:TABS:E:1,1996-01-02T17:00:00Z,27.3383,-97.1000,2.0,193.2812143,27.24881649,-99999.0,'11111222,11111222,99999999' 
TABS,ioos:station:TABS:E:1,1996-01-02T17:30:00Z,27.3383,-97.1000,2.0,197.6288485,23.60873779,-99999.0,'11111222,11111222,99999999' 
TABS,ioos:station:TABS:E:1,1996-01-02T18:00:00Z,27.3383,-97.1000,2.0,195.5719421,25.51663967,-99999.0,'11111222,11111222,99999999' 
TABS,ioos:station:TABS:E:1,1996-01-02T18:30:00Z,27.3383,-97.1000,2.0,194.4681737,28.61759249,-99999.0,'11111222,11111222,99999999' 
TABS,ioos:station:TABS:E:1,1996-01-02T19:00:00Z,27.3383,-97.1000,2.0,195.9451482,21.69472747,-99999.0,'11111222,11111222,99999999' 
TABS,ioos:station:TABS:E:1,1996-01-02T19:30:00Z,27.3383,-97.1000,2.0,195.2120614,17.60694465,-99999.0,'11111222,11111222,99999999' 
TABS,ioos:station:TABS:E:1,1996-01-02T20:00:00Z,27.3383,-97.1000,2.0,195.5257008,16.69937125,-99999.0,'11111222,11111222,99999999' 
TABS,ioos:station:TABS:E:1,1996-01-02T20:30:00Z,27.3383,-97.1000,2.0,194.3339118,14.46016943,-99999.0,'11111222,11111222,99999999' 
TABS,ioos:station:TABS:E:1,1996-01-02T21:00:00Z,27.3383,-97.1000,2.0,192.3460172,14.63854159,-99999.0,'11111222,11111222,99999999' 
TABS,ioos:station:TABS:E:1,1996-01-02T21:30:00Z,27.3383,-97.1000,2.0,194.4205289,15.53960746,-99999.0,'11111222,11111222,99999999' 
TABS,ioos:station:TABS:E:1,1996-01-02T22:00:00Z,27.3383,-97.1000,2.0,201.1264862,11.98560804,-99999.0,'11111222,11111222,99999999' 
TABS,ioos:station:TABS:E:1,1996-01-02T22:30:00Z,27.3383,-97.1000,2.0,211.9137382,9.306793218,-99999.0,'11133222,11111222,99999999' 
TABS,ioos:station:TABS:E:1,1996-01-02T23:00:00Z,27.3383,-97.1000,2.0,224.9996843,9.277240969,-99999.0,'11133222,11111222,99999999' 
TABS,ioos:station:TABS:E:1,1996-01-02T23:30:00Z,27.3383,-97.1000,2.0,219.9787047,7.190584121,-99999.0,'11133222,11111222,99999999' 
TABS,ioos:station:TABS:E:1,1996-01-03T00:00:00Z,27.3383,-97.1000,2.0,257.8224994,7.774934083,-99999.0,'11133222,11111222,99999999' 
TABS,ioos:station:TABS:E:1,1996-01-03T00:30:00Z,27.3383,-97.1000,2.0,271.1775631,7.301540933,-99999.0,'11133222,11111222,99999999' 
TABS,ioos:station:TABS:E:1,1996-01-03T01:00:00Z,27.3383,-97.1000,2.0,200.872334,15.4648828,-99999.0,'11111222,11111222,99999999' 
TABS,ioos:station:TABS:E:1,1996-01-03T01:30:00Z,27.3383,-97.1000,2.0,207.6525399,10.60087261,-99999.0,'11111222,11111222,99999999' 
TABS,ioos:station:TABS:E:1,1996-01-03T02:00:00Z,27.3383,-97.1000,2.0,198.7057548,10.69494273,-99999.0,'11111222,11111222,99999999' 
TABS,ioos:station:TABS:E:1,1996-01-03T02:30:00Z,27.3383,-97.1000,2.0,211.9137382,9.306793218,-99999.0,'11133222,11111222,99999999' 
TABS,ioos:station:TABS:E:1,1996-01-03T03:00:00Z,27.3383,-97.1000,2.0,224.9996843,7.580184694,-99999.0,'11133222,11111222,99999999' 
TABS,ioos:station:TABS:E:1,1996-01-03T03:30:00Z,27.3383,-97.1000,2.0,222.677078,5.059970356,-99999.0,'11133222,11111222,99999999' 
TABS,ioos:station:TABS:E:1,1996-01-03T04:00:00Z,27.3383,-97.1000,2.0,211.9187009,4.21773636,-99999.0,'11133222,11111222,99999999' 
TABS,ioos:station:TABS:E:1,1996-01-03T04:30:00Z,27.3383,-97.1000,2.0,232.4024664,4.884393514,-99999.0,'11133222,11111222,99999999' 
TABS,ioos:station:TABS:E:1,1996-01-03T05:00:00Z,27.3383,-97.1000,2.0,192.1868046,5.637038229,-99999.0,'11133222,11111222,99999999' 
TABS,ioos:station:TABS:E:1,1996-01-03T05:30:00Z,27.3383,-97.1000,2.0,172.451584,5.709474582,-99999.0,'11133222,11111222,99999999' 
TABS,ioos:station:TABS:E:1,1996-01-03T06:00:00Z,27.3383,-97.1000,2.0,138.0339273,2.003921156,-99999.0,'11133222,11111222,99999999' 
TABS,ioos:station:TABS:E:1,1996-01-03T06:30:00Z,27.3383,-97.1000,2.0,194.8429278,2.927695339,-99999.0,'11133222,11111222,99999999' 
TABS,ioos:station:TABS:E:1,1996-01-03T07:00:00Z,27.3383,-97.1000,2.0,230.4400036,3.281615456,-99999.0,'11133222,11111222,99999999' 
TABS,ioos:station:TABS:E:1,1996-01-03T07:30:00Z,27.3383,-97.1000,2.0,132.2561962,4.431568571,-99999.0,'11133222,11111222,99999999' 
TABS,ioos:station:TABS:E:1,1996-01-03T08:00:00Z,27.3383,-97.1000,2.0,146.9354694,3.555840266,-99999.0,'11133222,11111222,99999999' 
TABS,ioos:station:TABS:E:1,1996-01-03T08:30:00Z,27.3383,-97.1000,2.0,87.11842301,2.98377278,-99999.0,'11133222,11111222,99999999' 
TABS,ioos:station:TABS:E:1,1996-01-03T09:00:00Z,27.3383,-97.1000,2.0,284.1119215,1.8456977,-99999.0,'11133222,11111222,99999999' 
TABS,ioos:station:TABS:E:1,1996-01-03T09:30:00Z,27.3383,-97.1000,2.0,175.20967,1.796273921,-99999.0,'11133222,11111222,99999999' 
TABS,ioos:station:TABS:E:1,1996-01-03T10:00:00Z,27.3383,-97.1000,2.0,121.3551086,4.016590594,-99999.0,'11133222,11111222,99999999' 
TABS,ioos:station:TABS:E:1,1996-01-03T10:30:00Z,27.3383,-97.1000,2.0,11.40890198,2.274950549,-99999.0,'11133222,11111222,99999999' 
TABS,ioos:station:TABS:E:1,1996-01-03T11:00:00Z,27.3383,-97.1000,2.0,290.0956051,1.746310396,-99999.0,'11133222,11111222,99999999' 
TABS,ioos:station:TABS:E:1,1996-01-03T11:30:00Z,27.3383,-97.1000,2.0,90.0,2.23,-99999.0,'11133222,11111222,99999999' 
TABS,ioos:station:TABS:E:1,1996-01-03T12:00:00Z,27.3383,-97.1000,2.0,55.36640359,2.357795581,-99999.0,'11133222,11111222,99999999' 
TABS,ioos:station:TABS:E:1,1996-01-03T12:30:00Z,27.3383,-97.1000,2.0,21.80156896,0.807774721,-99999.0,'11133222,11111222,99999999' 
TABS,ioos:station:TABS:E:1,1996-01-03T13:00:00Z,27.3383,-97.1000,2.0,357.1186335,2.98377278,-99999.0,'11133222,11111222,99999999' 
TABS,ioos:station:TABS:E:1,1996-01-03T13:30:00Z,27.3383,-97.1000,2.0,7.399787815,4.658798128,-99999.0,'11133222,11111222,99999999' 
TABS,ioos:station:TABS:E:1,1996-01-03T14:00:00Z,27.3383,-97.1000,2.0,332.2932667,6.731901663,-99999.0,'11133222,11111222,99999999' 
TABS,ioos:station:TABS:E:1,1996-01-03T14:30:00Z,27.3383,-97.1000,2.0,332.6167679,9.392443771,-99999.0,'11133222,11111222,99999999' 
TABS,ioos:station:TABS:E:1,1996-01-03T15:00:00Z,27.3383,-97.1000,2.0,348.2778366,11.7143203,-99999.0,'11111222,11111222,99999999' 
TABS,ioos:station:TABS:E:1,1996-01-03T15:30:00Z,27.3383,-97.1000,2.0,332.2932667,13.46380333,-99999.0,'11111222,11111222,99999999' 
TABS,ioos:station:TABS:E:1,1996-01-03T16:00:00Z,27.3383,-97.1000,2.0,337.9546735,13.50760156,-99999.0,'11111222,11111222,99999999' 
TABS,ioos:station:TABS:E:1,1996-01-03T16:30:00Z,27.3383,-97.1000,2.0,343.7531297,12.25960032,-99999.0,'11111222,11111222,99999999' 
TABS,ioos:station:TABS:E:1,1996-01-03T17:00:00Z,27.3383,-97.1000,2.0,353.2525729,8.851310637,-99999.0,'11133222,11111222,99999999' 
TABS,ioos:station:TABS:E:1,1996-01-03T17:30:00Z,27.3383,-97.1000,2.0,334.8946673,10.53529781,-99999.0,'11111222,11111222,99999999' 
TABS,ioos:station:TABS:E:1,1996-01-03T18:00:00Z,27.3383,-97.1000,2.0,1.479115464,11.62387199,-99999.0,'11111222,11111222,99999999' 
TABS,ioos:station:TABS:E:1,1996-01-03T18:30:00Z,27.3383,-97.1000,2.0,359.4610578,15.94070576,-99999.0,'11111222,11144222,99999999' 
TABS,ioos:station:TABS:E:1,1996-01-03T19:00:00Z,27.3383,-97.1000,2.0,3.034243011,14.16986238,-99999.0,'11111222,11111222,99999999' 
TABS,ioos:station:TABS:E:1,1996-01-03T19:30:00Z,27.3383,-97.1000,2.0,12.67141383,12.21756113,-99999.0,'11111222,11111222,99999999' 
TABS,ioos:station:TABS:E:1,1996-01-03T20:00:00Z,27.3383,-97.1000,2.0,46.98889349,18.13407014,-99999.0,'11111222,11111222,99999999' 
TABS,ioos:station:TABS:E:1,1996-01-03T20:30:00Z,27.3383,-97.1000,2.0,44.60785454,15.49307265,-99999.0,'11111222,11111222,99999999' 
TABS,ioos:station:TABS:E:1,1996-01-03T21:00:00Z,27.3383,-97.1000,2.0,31.0653027,13.56555933,-99999.0,'11111222,11111222,99999999' 
TABS,ioos:station:TABS:E:1,1996-01-03T21:30:00Z,27.3383,-97.1000,2.0,21.68030097,14.91508297,-99999.0,'11111222,11111222,99999999' 
TABS,ioos:station:TABS:E:1,1996-01-03T22:00:00Z,27.3383,-97.1000,2.0,12.156863,29.72660761,-99999.0,'11111222,11111222,99999999' 
TABS,ioos:station:TABS:E:1,1996-01-03T22:30:00Z,27.3383,-97.1000,2.0,13.73118855,28.22669658,-99999.0,'11111222,11111222,99999999' 
TABS,ioos:station:TABS:E:1,1996-01-03T23:00:00Z,27.3383,-97.1000,2.0,15.60537295,23.82835706,-99999.0,'11111222,11111222,99999999' 
TABS,ioos:station:TABS:E:1,1996-01-03T23:30:00Z,27.3383,-97.1000,2.0,17.34153893,27.00760819,-99999.0,'11111222,11111222,99999999' 
TABS,ioos:station:TABS:E:1,1996-01-04T00:00:00Z,27.3383,-97.1000,2.0,15.25877376,28.8780124,-99999.0,'11111222,11111222,99999999' 
TABS,ioos:station:TABS:E:1,1996-01-04T00:30:00Z,27.3383,-97.1000,2.0,13.24743189,29.23801635,-99999.0,'11111222,11111222,99999999' 
TABS,ioos:station:TABS:E:1,1996-01-04T01:00:00Z,27.3383,-97.1000,2.0,14.17343713,30.42618116,-99999.0,'11111222,11111222,99999999' 
TABS,ioos:station:TABS:E:1,1996-01-04T01:30:00Z,27.3383,-97.1000,2.0,12.85927897,30.1050245,-99999.0,'11111222,11111222,99999999' 
TABS,ioos:station:TABS:E:1,1996-01-04T02:00:00Z,27.3383,-97.1000,2.0,1.189157286,28.91622555,-99999.0,'11111222,11111222,99999999' 
TABS,ioos:station:TABS:E:1,1996-01-04T02:30:00Z,27.3383,-97.1000,2.0,359.0846975,28.1635953,-99999.0,'11111222,11144222,99999999' 
TABS,ioos:station:TABS:E:1,1996-01-04T03:00:00Z,27.3383,-97.1000,2.0,8.054102828,31.90468618,-99999.0,'11111222,11111222,99999999' 
TABS,ioos:station:TABS:E:1,1996-01-04T03:30:00Z,27.3383,-97.1000,2.0,13.58090382,31.7270878,-99999.0,'11111222,11111222,99999999' 
TABS,ioos:station:TABS:E:1,1996-01-04T04:00:00Z,27.3383,-97.1000,2.0,17.71039277,36.75176866,-99999.0,'11111222,11111222,99999999' 
TABS,ioos:station:TABS:E:1,1996-01-04T04:30:00Z,27.3383,-97.1000,2.0,18.87210839,37.31596173,-99999.0,'11111222,11111222,99999999' 
TABS,ioos:station:TABS:E:1,1996-01-04T05:00:00Z,27.3383,-97.1000,2.0,22.43015883,40.62329996,-99999.0,'11111222,11111222,99999999' 
TABS,ioos:station:TABS:E:1,1996-01-04T05:30:00Z,27.3383,-97.1000,2.0,22.37866781,38.34803254,-99999.0,'11111222,11111222,99999999' 
TABS,ioos:station:TABS:E:1,1996-01-04T06:00:00Z,27.3383,-97.1000,2.0,29.64727979,42.17063078,-99999.0,'11111222,11111222,99999999' 
TABS,ioos:station:TABS:E:1,1996-01-04T06:30:00Z,27.3383,-97.1000,2.0,33.74539376,43.18620382,-99999.0,'11111222,11111222,99999999' 
TABS,ioos:station:TABS:E:1,1996-01-04T07:00:00Z,27.3383,-97.1000,2.0,38.63166673,47.49244677,-99999.0,'11111222,11111222,99999999' 
TABS,ioos:station:TABS:E:1,1996-01-04T07:30:00Z,27.3383,-97.1000,2.0,43.24653252,48.06334362,-99999.0,'11111222,11111222,99999999' 
TABS,ioos:station:TABS:E:1,1996-01-04T08:00:00Z,27.3383,-97.1000,2.0,44.12517366,48.15958679,-99999.0,'11111222,11111222,99999999' 
TABS,ioos:station:TABS:E:1,1996-01-04T08:30:00Z,27.3383,-97.1000,2.0,40.06582761,46.53036213,-99999.0,'11111222,11111222,99999999' 
TABS,ioos:station:TABS:E:1,1996-01-04T09:00:00Z,27.3383,-97.1000,2.0,39.73558017,47.08687821,-99999.0,'11111222,11111222,99999999' 
TABS,ioos:station:TABS:E:1,1996-01-04T09:30:00Z,27.3383,-97.1000,2.0,35.84245927,49.62798102,-99999.0,'11111222,11111222,99999999' 
TABS,ioos:station:TABS:E:1,1996-01-04T10:00:00Z,27.3383,-97.1000,2.0,34.85920825,50.84330831,-99999.0,'11111222,11111222,99999999' 
TABS,ioos:station:TABS:E:1,1996-01-04T10:30:00Z,27.3383,-97.1000,2.0,35.35673599,54.07285918,-99999.0,'11111222,11111222,99999999' 
TABS,ioos:station:TABS:E:1,1996-01-04T11:00:00Z,27.3383,-97.1000,2.0,31.8146293,53.13268862,-99999.0,'11111222,11111222,99999999' 
TABS,ioos:station:TABS:E:1,1996-01-04T11:30:00Z,27.3383,-97.1000,2.0,32.93319089,52.90082797,-99999.0,'11111222,11111222,99999999' 
TABS,ioos:station:TABS:E:1,1996-01-04T12:00:00Z,27.3383,-97.1000,2.0,27.53647502,50.91811171,-99999.0,'11111222,11111222,99999999' 
TABS,ioos:station:TABS:E:1,1996-01-04T12:30:00Z,27.3383,-97.1000,2.0,28.63098115,51.61068591,-99999.0,'11111222,11111222,99999999' 
TABS,ioos:station:TABS:E:1,1996-01-04T13:00:00Z,27.3383,-97.1000,2.0,27.31897908,50.31141123,-99999.0,'11111222,11111222,99999999' 
TABS,ioos:station:TABS:E:1,1996-01-04T13:30:00Z,27.3383,-97.1000,2.0,26.56519952,46.64437801,-99999.0,'11111222,11111222,99999999' 
TABS,ioos:station:TABS:E:1,1996-01-04T14:00:00Z,27.3383,-97.1000,2.0,25.64615717,45.44721994,-99999.0,'11111222,11111222,99999999' 
TABS,ioos:station:TABS:E:1,1996-01-04T14:30:00Z,27.3383,-97.1000,2.0,24.78925175,43.00235459,-99999.0,'11111222,11111222,99999999' 
TABS,ioos:station:TABS:E:1,1996-01-04T15:00:00Z,27.3383,-97.1000,2.0,22.90307641,41.72973999,-99999.0,'11111222,11111222,99999999' 
TABS,ioos:station:TABS:E:1,1996-01-04T15:30:00Z,27.3383,-97.1000,2.0,23.2952125,44.45385585,-99999.0,'11111222,11111222,99999999' 
TABS,ioos:station:TABS:E:1,1996-01-04T16:00:00Z,27.3383,-97.1000,2.0,21.76817156,44.6003139,-99999.0,'11111222,11111222,99999999' 
TABS,ioos:station:TABS:E:1,1996-01-04T16:30:00Z,27.3383,-97.1000,2.0,31.73142951,51.85038958,-99999.0,'11111222,11111222,99999999' 
TABS,ioos:station:TABS:E:1,1996-01-04T17:00:00Z,27.3383,-97.1000,2.0,31.5163418,50.1588078,-99999.0,'11111222,11111222,99999999' 
TABS,ioos:station:TABS:E:1,1996-01-04T17:30:00Z,27.3383,-97.1000,2.0,28.94580644,48.01851726,-99999.0,'11111222,11111222,99999999' 
TABS,ioos:station:TABS:E:1,1996-01-04T18:00:00Z,27.3383,-97.1000,2.0,27.67826854,48.11584562,-99999.0,'11111222,11111222,99999999' 